Regional Weather Roundup
Issued by NWS

Home | Current Version | Previous Version | Text Only | Print | Product List | Glossary Off
Versions: 1 2 3 4 5 6 7 8 9 10 11 12 13 14 15 16 17 18 19 20 21 22 23 24 25 26 27 28 29 30 31 32 33 34 35 36 37 38 39 40 41 42 43 44 45 46 47 48 49 50

000
ASUS43 KBIS 281410
RWRND

NORTH DAKOTA REGIONAL WEATHER ROUNDUP
NATIONAL WEATHER SERVICE BISMARCK ND
900 AM CDT WED JUN 28 2017

NOTE: "FAIR" INDICATES FEW OR NO CLOUDS BELOW 12,000 FEET WITH NO
SIGNIFICANT WEATHER AND/OR OBSTRUCTIONS TO VISIBILITY.


NDZ001>003-009>011-017-281500-
NORTHWEST NORTH DAKOTA

CITY           SKY/WX    TMP DP  RH WIND       PRES   REMARKS
WILLISTON      SUNNY     64  42  44 N9        29.75S
MINOT          MOSUNNY   63  47  55 NW18G25   29.64S
MINOT AFB      PTSUNNY   63  46  55 NW17      29.63S
$$

NDZ018>021-031>035-040>046-281500-
SOUTHWEST NORTH DAKOTA

CITY           SKY/WX    TMP DP  RH WIND       PRES   REMARKS
BISMARCK       PTSUNNY   68  57  68 NW16G24   29.64R
DICKINSON      MOSUNNY   63  43  48 NW9G20    29.72S
GARRISON         N/A     60  47  61 NW20      29.65S
HETTINGER ARPT SUNNY     66  47  50 NW17      29.76R
$$

NDZ004>008-012>016-024-026-027-054-281500-
NORTHEAST NORTH DAKOTA

CITY           SKY/WX    TMP DP  RH WIND       PRES   REMARKS
GRAND FORKS    HVY RAIN  61  61 100 NE15      29.49F FOG
GRND FRKS AFB  HVY RAIN  61  61 100 NE8       29.50F FOG
DEVILS LAKE    CLOUDY    63  60  90 N14       29.55R
$$

NDZ022-023-025-028>030-036>039-047>053-281500-
SOUTHEAST NORTH DAKOTA

CITY           SKY/WX    TMP DP  RH WIND       PRES   REMARKS
FARGO          CLOUDY    68  63  84 S20G28    29.44F
JAMESTOWN      PTSUNNY   65  60  84 N17       29.51S
$$




USA.gov is the U.S. government's official web portal to all federal, state and local government web resources and services.